Precipitable_Water
0.72 0.70 0.72 0.73 0.76 0.79 0.76 0.68 0.64 0.62 0.66 0.75 0.82 0.93 1.14 1.33 1.45 1.52 1.50 1.47 1.45 1.43 1.44 1.45 1.43 1.36 1.33 1.48 1.54 1.57 1.50 1.47 1.57 1.61 1.52 1.43 1.34 1.27 1.22 1.09 0.95 0.82 0.73
0.50 0.50 0.53 0.58 0.63 0.70 0.71 0.68 0.65 0.59 0.56 0.55 0.53 0.57 0.59 0.75 1.03 1.22 1.37 1.40 1.41 1.36 1.35 1.38 1.41 1.45 1.42 1.36 1.43 1.55 1.54 1.52 1.61 1.65 1.56 1.50 1.41 1.40 1.37 1.24 1.13 1.08 1.09
0.45 0.45 0.45 0.44 0.48 0.51 0.53 0.59 0.61 0.61 0.60 0.62 0.58 0.57 0.56 0.55 0.54 0.59 0.83 1.03 1.20 1.21 1.26 1.36 1.39 1.39 1.40 1.41 1.44 1.45 1.54 1.61 1.58 1.62 1.61 1.57 1.50 1.42 1.40 1.35 1.26 1.29 1.28
0.48 0.47 0.46 0.47 0.51 0.52 0.53 0.54 0.55 0.53 0.54 0.54 0.56 0.58 0.57 0.56 0.56 0.58 0.59 0.62 0.81 0.80 0.77 0.86 1.02 1.04 1.15 1.19 1.22 1.28 1.30 1.36 1.46 1.52 1.52 1.51 1.51 1.46 1.42 1.35 1.24 1.37 1.34
0.51 0.50 0.51 0.53 0.55 0.53 0.53 0.56 0.57 0.57 0.52 0.51 0.50 0.51 0.54 0.55 0.55 0.54 0.54 0.60 0.63 0.63 0.64 0.68 0.72 0.79 0.85 0.96 1.10 1.16 1.27 1.35 1.36 1.39 1.40 1.44 1.45 1.40 1.40 1.34 1.24 1.28 1.30
0.51 0.52 0.53 0.54 0.55 0.54 0.54 0.54 0.54 0.60 0.57 0.55 0.52 0.50 0.52 0.51 0.55 0.54 0.54 0.57 0.58 0.59 0.63 0.66 0.69 0.65 0.69 0.74 0.83 1.06 1.06 1.16 1.27 1.32 1.31 1.34 1.39 1.36 1.38 1.34 1.31 1.30 1.26
0.50 0.50 0.51 0.53 0.55 0.53 0.53 0.54 0.52 0.50 0.50 0.56 0.47 0.44 0.45 0.51 0.52 0.54 0.54 0.54 0.55 0.63 0.66 0.66 0.68 0.70 0.71 0.73 0.73 0.81 1.04 1.14 1.18 1.18 1.26 1.29 1.32 1.42 1.33 1.32 1.29 1.25 1.26
0.53 0.52 0.51 0.50 0.51 0.51 0.52 0.52 0.51 0.48 0.50 0.53 0.44 0.41 0.32 0.40 0.54 0.56 0.63 0.63 0.65 0.72 0.71 0.69 0.73 0.74 0.76 0.72 0.73 0.77 0.84 0.94 1.06 1.08 1.18 1.25 1.32 1.52 1.39 1.42 1.29 1.23 1.27
0.54 0.54 0.53 0.53 0.52 0.52 0.50 0.52 0.53 0.50 0.46 0.51 0.53 0.46 0.36 0.33 0.42 0.52 0.57 0.66 0.71 0.74 0.75 0.75 0.74 0.78 0.79 0.77 0.75 0.74 0.76 0.84 0.91 0.96 1.09 1.20 1.30 1.33 1.32 1.33 1.28 1.26 1.29
0.53 0.54 0.53 0.52 0.51 0.53 0.52 0.53 0.55 0.53 0.53 0.48 0.54 0.58 0.59 0.55 0.41 0.35 0.52 0.57 0.67 0.69 0.70 0.72 0.74 0.74 0.75 0.75 0.74 0.73 0.73 0.76 0.81 0.87 0.93 1.01 1.11 1.24 1.27 1.26 1.29 1.30 1.28
0.53 0.53 0.53 0.53 0.52 0.53 0.53 0.53 0.53 0.52 0.54 0.52 0.52 0.51 0.53 0.55 0.55 0.50 0.40 0.46 0.59 0.64 0.67 0.68 0.71 0.73 0.75 0.78 0.76 0.75 0.75 0.75 0.77 0.80 0.82 0.83 0.88 0.98 1.09 1.19 1.28 1.44 1.38
0.50 0.52 0.54 0.54 0.53 0.53 0.53 0.55 0.56 0.55 0.54 0.54 0.55 0.53 0.52 0.50 0.50 0.51 0.49 0.50 0.51 0.57 0.64 0.67 0.69 0.72 0.75 0.80 0.82 0.82 0.80 0.79 0.77 0.74 0.75 0.78 0.80 0.85 0.91 1.02 1.10 1.35 1.28
0.47 0.49 0.52 0.53 0.53 0.54 0.55 0.55 0.56 0.56 0.56 0.55 0.55 0.54 0.56 0.56 0.59 0.58 0.55 0.52 0.51 0.57 0.57 0.64 0.68 0.69 0.71 0.75 0.80 0.84 0.84 0.84 0.83 0.81 0.79 0.81 0.86 0.89 0.89 0.88 1.02 1.09 1.28
0.51 0.53 0.54 0.55 0.55 0.55 0.54 0.55 0.55 0.56 0.56 0.57 0.57 0.57 0.56 0.57 0.59 0.60 0.58 0.54 0.48 0.50 0.51 0.51 0.65 0.71 0.71 0.75 0.80 0.83 0.85 0.84 0.82 0.85 0.88 0.89 0.85 0.88 0.89 0.90 0.91 0.99 1.24
0.56 0.56 0.57 0.56 0.56 0.55 0.55 0.55 0.55 0.55 0.57 0.58 0.58 0.60 0.58 0.59 0.61 0.62 0.63 0.63 0.56 0.43 0.43 0.51 0.55 0.69 0.73 0.75 0.76 0.77 0.79 0.80 0.81 0.83 0.85 0.89 0.91 0.93 0.91 0.91 0.90 0.93 0.97
0.56 0.56 0.56 0.56 0.56 0.55 0.55 0.55 0.55 0.57 0.56 0.57 0.59 0.60 0.61 0.61 0.61 0.62 0.61 0.61 0.62 0.56 0.49 0.62 0.62 0.67 0.71 0.74 0.76 0.76 0.75 0.77 0.78 0.79 0.85 0.89 0.91 0.96 0.95 0.94 0.93 0.95 0.97
0.55 0.55 0.55 0.54 0.54 0.54 0.55 0.55 0.57 0.58 0.57 0.58 0.60 0.61 0.63 0.65 0.62 0.62 0.64 0.63 0.60 0.60 0.52 0.57 0.63 0.67 0.67 0.70 0.73 0.76 0.76 0.74 0.75 0.80 0.82 0.84 0.89 0.95 1.00 1.03 0.98 0.98 0.99
0.55 0.54 0.53 0.52 0.52 0.53 0.54 0.55 0.56 0.60 0.59 0.59 0.62 0.63 0.65 0.67 0.63 0.65 0.65 0.62 0.62 0.63 0.59 0.53 0.60 0.63 0.64 0.69 0.70 0.70 0.72 0.76 0.76 0.78 0.81 0.81 0.83 0.92 0.99 0.98 1.01 1.00 0.98
0.53 0.52 0.52 0.52 0.53 0.54 0.55 0.56 0.59 0.61 0.62 0.63 0.65 0.65 0.67 0.67 0.64 0.65 0.66 0.63 0.64 0.62 0.63 0.60 0.59 0.64 0.65 0.67 0.67 0.73 0.72 0.72 0.75 0.78 0.80 0.81 0.81 0.86 0.91 0.95 0.94 0.96 0.96
0.51 0.51 0.52 0.54 0.55 0.57 0.59 0.60 0.62 0.63 0.65 0.67 0.69 0.69 0.68 0.66 0.64 0.63 0.63 0.63 0.65 0.62 0.61 0.59 0.59 0.61 0.64 0.68 0.68 0.64 0.64 0.70 0.69 0.74 0.78 0.81 0.81 0.83 0.87 0.88 0.90 0.90 0.90
0.52 0.52 0.52 0.53 0.56 0.59 0.61 0.63 0.65 0.67 0.67 0.68 0.70 0.71 0.70 0.69 0.68 0.67 0.63 0.60 0.60 0.59 0.58 0.57 0.58 0.59 0.60 0.61 0.61 0.65 0.63 0.66 0.68 0.71 0.71 0.73 0.76 0.76 0.80 0.82 0.82 0.82 0.84
0.51 0.51 0.52 0.53 0.56 0.60 0.64 0.68 0.67 0.68 0.68 0.68 0.68 0.70 0.69 0.67 0.65 0.65 0.62 0.62 0.62 0.57 0.55 0.56 0.57 0.54 0.57 0.60 0.63 0.62 0.61 0.60 0.56 0.68 0.66 0.65 0.72 0.69 0.72 0.76 0.77 0.77 0.79
0.51 0.51 0.52 0.54 0.58 0.61 0.66 0.69 0.70 0.70 0.70 0.70 0.70 0.67 0.64 0.65 0.63 0.62 0.61 0.61 0.61 0.62 0.61 0.61 0.56 0.58 0.58 0.61 0.63 0.61 0.61 0.60 0.58 0.63 0.63 0.59 0.66 0.64 0.70 0.71 0.72 0.73 0.73
0.50 0.52 0.54 0.57 0.59 0.62 0.67 0.68 0.69 0.69 0.68 0.69 0.68 0.64 0.62 0.61 0.60 0.60 0.59 0.57 0.57 0.59 0.61 0.62 0.61 0.61 0.62 0.63 0.64 0.63 0.61 0.59 0.60 0.62 0.63 0.53 0.61 0.59 0.62 0.61 0.61 0.60 0.58
0.51 0.53 0.56 0.57 0.60 0.62 0.67 0.68 0.68 0.67 0.66 0.66 0.64 0.61 0.59 0.57 0.58 0.55 0.51 0.49 0.48 0.49 0.53 0.55 0.55 0.55 0.56 0.58 0.59 0.56 0.50 0.51 0.48 0.46 0.49 0.47 0.50 0.49 0.50 0.51 0.54 0.54 0.54
0.51 0.55 0.57 0.59 0.62 0.64 0.67 0.67 0.67 0.67 0.62 0.60 0.60 0.57 0.48 0.43 0.42 0.41 0.38 0.37 0.35 0.37 0.41 0.41 0.42 0.44 0.44 0.42 0.40 0.38 0.38 0.35 0.35 0.34 0.41 0.38 0.40 0.41 0.36 0.40 0.43 0.43 0.44
Wind_Speed
13 12 12 12 11 12 11 12 14 14 15 16 16 17 18 19 19 19 20 20 21 21 21 21 21 22 23 23 23 23 23 22 22 23 22 22 21 20 20 19 19 18 18
12 12 12 11 11 11 12 13 13 13 14 14 16 17 18 19 20 21 21 21 22 22 23 23 24 24 25 25 25 26 26 25 25 26 25 25 24 23 22 21 21 20 20
11 11 11 11 12 12 12 13 14 14 15 15 16 17 18 18 19 21 22 23 23 24 24 24 25 25 25 27 28 29 29 28 29 29 28 28 27 26 25 24 24 24 23
10 11 11 12 12 13 13 14 15 16 17 18 19 19 20 20 21 21 21 23 23 24 25 26 27 27 27 27 27 28 29 30 30 31 31 30 29 28 28 27 26 26 26
10 11 12 12 13 13 14 15 16 17 17 18 20 22 23 23 24 24 24 24 24 25 25 26 26 27 27 28 29 29 29 30 31 32 32 31 31 30 29 28 28 27 27
11 12 12 13 13 14 14 15 16 17 19 20 20 22 23 25 26 27 27 27 27 27 27 27 28 28 28 28 29 30 31 31 32 32 33 34 33 32 31 31 30 29 29
12 12 13 13 14 15 16 16 17 18 19 20 22 22 22 23 24 26 28 29 28 28 28 29 29 29 29 29 30 31 31 32 33 34 34 34 36 36 34 33 33 32 31
12 13 14 15 16 17 17 18 18 19 20 21 21 22 21 22 22 22 22 25 26 27 27 28 29 29 29 30 30 31 32 33 33 34 35 35 34 36 38 32 34 34 34
13 14 15 16 17 18 18 19 19 20 21 21 21 22 21 21 23 22 23 23 24 25 26 26 26 28 29 31 31 31 33 34 34 35 35 36 37 37 40 40 39 38 37
15 16 16 17 18 18 19 20 20 21 22 23 24 24 25 25 24 24 24 25 26 27 27 28 29 29 30 31 30 32 33 35 35 36 37 38 38 39 40 42 41 42 41
17 18 18 19 19 20 21 22 22 23 23 24 24 26 27 27 28 27 27 26 27 28 28 29 30 30 31 32 32 33 33 34 35 37 38 40 41 41 40 41 43 41 41
20 21 21 22 22 23 23 24 25 25 25 26 27 27 27 27 27 28 28 28 28 29 29 29 29 30 31 32 33 34 34 35 37 38 39 41 43 43 44 44 43 42 46
21 22 23 24 25 25 26 27 27 28 28 28 28 29 29 30 31 31 30 29 28 27 28 29 29 30 31 33 34 35 36 37 38 39 40 41 42 43 43 44 44 44 47
23 24 25 26 27 28 28 29 29 30 30 30 30 30 30 30 30 31 31 30 30 28 28 29 29 28 29 30 32 34 36 37 39 40 41 42 44 45 45 45 46 45 46
24 26 27 28 29 30 31 31 32 33 33 32 32 31 30 29 29 29 30 30 30 28 28 27 27 29 30 31 32 34 36 38 39 40 41 42 43 44 45 45 46 46 46
26 28 29 29 30 32 33 33 34 34 34 33 32 32 31 29 28 28 28 28 28 29 28 26 26 29 30 31 32 33 34 36 38 38 39 41 42 41 42 42 41 41 41
26 27 28 29 30 31 32 33 34 34 33 32 32 31 30 29 27 26 26 26 27 27 27 28 28 29 30 30 30 31 32 33 35 36 38 37 38 38 39 38 39 40 39
25 26 27 28 30 31 32 32 31 31 30 30 29 28 28 26 26 25 24 23 23 24 24 24 24 25 27 27 28 29 30 31 32 31 31 32 32 31 34 34 33 34 36
25 25 26 28 29 30 30 29 28 28 27 26 25 24 24 23 22 22 21 21 21 21 21 21 21 22 22 24 25 25 26 26 25 25 25 25 26 26 26 27 26 28 29
25 25 26 28 29 29 28 26 25 25 24 23 22 21 19 18 17 17 17 18 18 19 19 20 20 20 20 20 20 21 21 20 20 22 23 24 23 22 21 19 20 23 25
24 25 27 28 28 27 25 24 22 21 19 17 16 15 15 14 14 14 15 15 16 16 17 18 18 17 17 17 17 18 18 19 19 21 22 23 23 21 20 20 21 20 21
24 25 26 27 26 24 22 20 18 17 15 14 13 13 12 12 12 12 11 11 12 13 15 16 16 17 16 16 17 16 15 16 17 18 18 18 18 19 21 21 21 22 21
24 25 25 25 22 20 19 16 14 13 11 10 10 10 10 10 10 10 10 10 10 10 11 12 12 14 15 16 16 16 16 16 18 17 16 15 14 16 18 20 21 22 22
23 23 23 21 19 17 15 13 12 11 10 10 9 9 9 9 9 9 9 9 9 10 10 11 10 11 12 13 13 14 14 14 14 14 15 14 14 14 15 17 18 20 21
22 22 20 18 17 15 13 11 11 10 10 9 9 9 9 8 8 7 8 8 8 9 9 9 9 9 10 10 11 11 12 13 13 14 14 14 14 15 16 17 19 20 22
21 19 18 16 14 12 11 11 10 9 9 8 7 6 6 5 5 5 5 6 6 8 8 8 9 9 10 11 11 12 13 13 14 15 16 16 17 17 18 19 20 21 23
Wind_Direction
251 252 254 257 259 252 250 249 252 253 253 255 255 256 254 253 254 254 255 255 254 255 256 257 259 258 257 255 254 253 252 249 246 244 247 252 256 259 261 263 264 261 258
250 250 252 256 256 257 255 256 254 257 256 257 257 258 258 255 256 256 257 256 256 258 258 259 259 260 259 257 256 254 253 251 249 249 251 254 256 258 260 263 262 261 257
249 252 254 257 262 264 262 261 260 260 259 260 260 260 260 260 260 258 257 258 258 259 259 259 260 261 261 259 257 256 255 253 253 253 254 255 257 258 259 262 261 258 255
251 254 257 260 265 267 268 265 264 263 264 264 263 263 263 262 262 261 261 260 260 261 262 262 261 261 260 259 258 257 256 256 255 254 255 256 256 257 258 262 261 257 256
257 260 262 265 268 269 270 269 269 268 269 269 268 266 265 264 263 263 262 261 262 263 263 263 263 262 261 260 259 258 258 257 256 255 256 255 255 256 257 259 260 257 256
264 265 266 269 271 270 273 274 273 272 272 272 273 272 270 267 264 263 263 262 262 263 264 264 263 263 262 262 262 260 259 258 257 258 257 256 255 255 256 258 259 257 254
267 268 269 271 274 275 277 278 277 277 276 277 276 276 274 271 268 266 264 263 262 262 265 263 264 263 262 263 262 261 261 261 260 260 260 259 257 254 256 258 258 258 255
272 271 272 274 276 278 280 281 282 280 278 279 278 278 276 273 268 273 269 266 262 262 265 267 263 264 263 263 264 263 262 262 262 261 260 260 260 259 261 252 259 258 256
274 276 277 278 279 280 281 282 283 284 282 282 281 278 277 273 277 271 271 269 265 264 264 268 266 264 265 266 266 265 263 263 263 262 262 260 258 259 257 258 258 257 256
276 277 280 281 282 283 284 286 287 286 285 283 281 277 277 275 274 274 270 271 269 267 267 267 267 267 268 267 267 266 265 265 264 264 263 262 261 260 260 259 259 256 256
277 278 280 282 283 284 284 286 287 287 286 285 283 281 278 276 274 270 273 272 269 268 269 269 269 268 268 267 267 268 268 268 267 265 264 263 262 262 262 261 261 257 253
276 278 280 282 283 284 285 285 285 286 286 285 283 281 279 276 274 273 272 272 270 270 271 271 270 270 270 268 268 269 270 270 270 268 266 265 263 263 262 261 261 259 257
277 278 280 281 282 284 285 285 284 284 285 284 284 283 279 276 273 272 271 272 271 270 271 272 272 272 272 271 270 271 272 271 272 271 268 267 265 264 262 261 260 260 259
279 281 281 282 282 283 285 284 284 284 284 283 283 283 281 278 273 271 268 270 271 271 271 272 273 273 276 275 273 273 273 274 274 273 271 269 267 265 263 262 260 259 257
282 283 284 283 284 284 284 284 283 283 282 281 280 281 280 278 275 272 269 267 268 271 273 274 273 274 277 279 277 276 276 276 276 274 272 271 269 266 263 262 260 259 257
285 285 285 285 285 285 285 284 283 283 282 279 278 278 278 276 274 272 270 267 267 270 273 275 276 277 279 279 279 280 280 278 278 277 275 272 271 267 264 261 259 257 255
288 288 289 289 289 289 287 286 284 282 280 278 276 275 275 273 271 270 271 269 268 268 272 276 279 280 281 281 281 282 283 283 283 280 276 275 271 267 264 261 258 255 251
291 292 292 292 293 292 291 288 286 282 280 278 276 275 272 270 268 267 268 269 270 271 274 279 282 284 283 283 284 284 286 286 285 284 280 277 273 270 262 262 258 255 251
294 294 295 295 296 295 292 289 285 282 279 276 274 273 270 268 267 265 266 268 271 273 274 279 285 288 289 289 288 288 289 289 287 286 286 279 276 268 266 259 257 254 250
297 296 298 298 298 297 294 290 285 281 278 275 272 268 266 265 264 265 267 270 272 275 276 279 285 288 293 295 295 291 292 289 289 289 287 285 274 265 261 259 258 256 254
298 299 300 300 299 297 293 290 284 280 276 271 268 263 260 260 263 267 269 275 277 278 280 283 286 289 294 297 297 298 293 287 291 291 286 282 275 260 264 258 262 259 257
299 301 302 303 300 296 293 288 281 278 274 265 259 258 257 259 262 267 273 283 286 284 287 287 288 289 290 295 297 299 295 290 293 298 297 292 275 260 263 265 261 259 259
302 303 303 303 300 295 293 285 275 269 265 259 253 253 255 259 262 264 273 281 294 300 303 298 298 298 296 295 292 294 294 292 292 295 296 293 284 270 264 264 263 260 260
304 304 303 303 299 295 294 279 269 262 253 253 256 256 256 261 263 266 271 281 291 301 307 308 309 309 306 304 299 296 296 296 295 296 295 294 287 278 273 270 266 262 261
306 304 301 302 297 292 286 277 263 250 252 249 257 257 258 260 262 269 276 283 292 302 309 316 318 319 320 319 314 308 306 301 299 300 301 294 291 287 281 275 272 270 267
307 303 298 298 297 290 281 275 253 244 239 245 257 253 245 247 260 272 283 291 300 307 309 313 316 319 321 321 322 316 310 305 301 299 301 296 292 289 284 281 278 277 274